星链-1627 (STARLINK-1627 )

导读 | 豆包AI

STARLINK-1627是美国SpaceX星链星座的卫星,于2020年8月18日发射升空,归属于星链低轨互联网星座项目,旨在为全球提供宽带互联网服务。星链系统通过大规模部署低轨卫星,逐步构建全球卫星互联网组网,这颗卫星是星链星座组网进程中早期发射的卫星之一,服务于星座的全球覆盖计划。

基本信息
目录编号:
46168
目录名称:
STARLINK-1627
国际标识:
2020-057BD
轨道中心:
EARTH
卫星名称:
星链-1627
卫星全名:
星链-1627 (STARLINK-1627 )
卫星状态:
在轨 (已飞行2034 天)
发射日期:
2020-08-18 UTC
国别 :
美国 (US)
星等 :
--
轨道信息
数据来源 国际轨道数据
星历时间: 2026-03-14T08:00:02+0800
10小时前
查看轨道信息
半长轴: 6728.415km
偏心率: 0.0003953
轨道倾角: 53.042°
近地点辐角 34.714°
升交点赤经 203.387°
平近点角 212.262°
近地点: 347.618km
远地点: 352.938km
周期: 91.544分钟
每日圈数: 15.73018
详细信息
固有亮度:
5
最大亮度:
2.5
卫星平台:
Starlink V1.0
覆盖范围:
全球
运营商:
太空探索技术公司
运营商所在国:
美国
制造商(研发单位):
太空探索技术公司
制造商所在国:
美国
使用方式:
暂无
卫星简介
星链(Starlink)计划是由太空探索技术公司(SpaceX)提出的一个巨型低轨卫星互联网星座项目,计划在2019年至2024年间在太空搭建由约1.2万颗卫星组成的“星链”网络,其中1584颗将部署在地球上空550千米处的近地轨道,并从2020年开始工作。该卫星仍在工作。
2D轨道图
3D轨道图
轨道高度分析图
轨道倾角分析图
轨道综合分析图
查看轨道综合分析图